www.pogodaiklimat.ru

Погода и климат >> Архив погоды >> Россия >> Свердловская область >> Гари


ПОГОДА в Гарях

  • Прогноз погоды в Гарях
  • Монитор погоды в Гарях

АРХИВ ПОГОДЫ в Гарях

Время (UTC), дата Ветер
(напр.,м/с)
 
Видим.   Явления Облачность Т
(С)
Тd
(С)
f
(%)
Тe
(С)
Тes
(С)
Комфортность P
(гПа)
Po
(гПа)
Тmin
(С)
Tmax
(С)
R
(мм)
R24
(мм)
S
(см)
21 17.05 ЮЗ 1 10 км ясно +3.2 -1.9 69 +2 +2 1005.0 988.9
00 18.05 Ю 4 50 км ясно -0.2 -2.6 84 -6 -6 1003.4 987.2
03 18.05 З 4 50 км 6/3 600 м
[Sc Ac und]
+4.6 -1.4 65 +1 +2 1002.0 986.1 -0.4
06 18.05 З 3 50 км 9/9 600 м
[Sc]
+6.9 +1.7 69 +4 +5 1000.8 985.0
09 18.05 ЮЗ 4 50 км 9/9 600 м
[Cb calv]
+6.1 +1.3 71 +3 +3 1000.3 984.5
12 18.05 СВ 4
{12}
50 км {ливн. осадки} 9/6 600 м
[Cb calv Ac trans]
+6.1 +2.4 77 +2 +3 1000.3 984.4
15 18.05 СЗ 3 50 км 9/9 600 м
[Cb calv]
+7.1 -0.4 59 +5 +5 1000.6 984.8 +7.1 0.7
18 18.05 Ю 3 10 км 6/0
[Ac trans]
+5.0 -1.9 61 +2 +2 1000.1 984.2
21 18.05 З 1 10 км 8/0
[Ac und]
+3.4 -2.3 66 +2 +2 999.4 983.4
00 19.05 С 3 50 км 6/0
[Ac lent]
-0.1 -4.9 70 -4 -4 999.6 983.4
03 19.05 С 3 50 км 8/0
[Ac trans Ci]
+2.1 -1.0 80 -2 -0 999.6 983.6 -0.4
06 19.05 СВ 1 50 км 8/8 600 м
[Cb calv]
+7.7 -1.9 51 +7 +10 999.7 983.9
09 19.05 С 3 50 км 8/8 600 м
[Cb calv]
+7.9 -4.2 42 +6 +8 1000.7 984.9
12 19.05 СЗ 6 50 км 6/6 600 м
[Cb calv]
+9.6 -6.3 32 +7 +8 1001.4 985.7
15 19.05 СЗ 3 50 км 6/6 600 м
[Cb calv]
+7.5 -4.8 41 +5 +6 1002.1 986.3 +9.6
18 19.05 СЗ 2 10 км 6/0
[Ac und]
+4.7 -4.1 53 +3 +3 1002.4 986.5
21 19.05 СЗ 3 10 км 8/0
[Ac und]
+3.9 -2.6 63 +1 +1 1002.2 986.2
00 20.05 СЗ 5 10 км слаб. ливневой дождь 10/10 600 м
[Cb cap]
+3.5 -0.6 75 -1 -1 1002.7 986.7
03 20.05 С 6
{10}
50 км {ливн. осадки} 8/8 600 м
[Cb calv]
+3.3 +1.0 85 -2 -2 1003.4 987.4 +2.4 0.4
06 20.05 СЗ 5
{11}
50 км {ливн. осадки} 8/8 600 м
[Cb calv Ac trans]
+5.1 -2.1 60 +1 +2 1003.8 987.8
09 20.05 С 7-10
{11}
50 км 9/9 600 м
[Cb cap]
+6.5 -2.9 51 +2 +3 1004.4 988.5
12 20.05 СЗ 6
{12}
10 км слаб. ливневой дождь 10/10 600 м
[Cb cap]
+3.9 +2.1 88 -2 -2 1005.8 989.7
15 20.05 СЗ 5
{10}
10 км слаб. ливневой дождь 10/10 600 м
[Cb cap]
+3.4 +2.1 91 -2 -2 1006.2 990.1 +6.7 2
18 20.05 СЗ 5 10 км слаб. ливневой дождь 10/10 600 м
[Cb cap]
+2.5 +1.7 94 -3 -3 1006.3 990.2
21 20.05 С 6 10 км {ливн. осадки} 10/10 600 м
[Cb cap]
+1.7 +0.6 92 -5 -5 1006.0 989.8
00 21.05 СЗ 6 50 км {ливн. осадки} 10/10 300 м
[St]
+1.2 -0.2 90 -5 -5 1006.1 989.9
03 21.05 С 6 50 км 10/10 600 м
[Sc]
+1.5 -0.7 85 -5 -5 1007.1 990.9 +0.8 1
06 21.05 С 6
{10}
50 км в посл. час ливневой снег 10/10 600 м
[Cb cap]
+1.7 +0.3 90 -5 -5 1008.5 992.3
09 21.05 С 6
{10}
50 км 9/9 600 м
[Sc]
+3.8 -0.5 73 -2 -1 1010.1 993.9
12 21.05 С 4
{10}
50 км в посл. час ливневой дождь 9/9 600 м
[Cb calv]
+3.8 +1.2 83 -1 -0 1011.6 995.4
15 21.05 СЗ 4 50 км 8/4 600 м
[Sc Ac und]
+3.7 +1.1 83 -1 -1 1012.0 995.8 +5.4 0.0
18 21.05 СЗ 3 10 км 8/3 600 м
[Sc Ac und]
+3.0 +0.9 86 -1 -1 1012.1 995.9
21 21.05 С 3 10 км 6/0
[Ac und]
+2.4 +0.5 87 -2 -2 1011.8 995.6
00 22.05 С 2 50 км 6/0
[Ac und]
+1.2 +0.7 96 -2 -2 1012.2 995.9
03 22.05 СЗ 3 50 км 8/4 600 м
[Sc Ac und]
+3.8 +1.2 83 0 +1 1012.3 996.1 +0.9
06 22.05 З 3 50 км 8/3 600 м
[Cb calv Ac trans]
+7.5 -1.8 52 +5 +9 1012.0 996.1
09 22.05 СЗ 6 50 км 8/8 600 м
[Cu med, cong]
+10.6 -4.3 35 +8 +9 1010.9 995.2
12 22.05 ЮЗ 2 50 км 8/4 600 м
[Cu med, cong Ac trans]
+12.9 +2.1 48 +12 +15 1010.2 994.6
15 22.05 Ю 1 50 км 6/0
[Ac trans]
+12.0 +1.1 47 +12 +13 1009.8 994.1 +12.9
18 22.05 ЮВ 3 10 км 6/0
[Ac trans]
+10.0 -0.2 49 +8 +8 1009.6 993.8
21 22.05 Ю 3 н/о н/о 0.0 0.0 100
00 23.05 ЮВ 4 50 км 6/0
[Ac trans]
+6.4 -2.4 53 +3 +3 1008.1 992.1
03 23.05 ЮВ 3 50 км 8/0
[Ci fib]
+9.2 -1.8 46 +7 +11 1006.8 991.1 +6.4
06 23.05 Ю 7-11
{11}
50 км 6/4 600 м
[Cu med, cong Ci fib]
+15.7 +2.6 41 +14 +16 1004.2 988.8
09 23.05 Ю 7-11
{14}
50 км 8/4 600 м
[Cu med, cong Ci fib]
+18.1 -8.4 16 +17 +19 1001.4 986.2
12 23.05 Ю 8-15
{15}
50 км 8/6 600 м
[Cu med, cong Ci fib]
+18.5 +5.1 41 +18 +18 998.1 983.0
15 23.05 Ю 6-12
{15}
50 км 6/3 600 м
[Cu med, cong Ci fib]
+17.2 -1.3 28 +16 +17 995.6 980.5 +18.5
18 23.05 Ю 5-10
{12}
10 км 6/3 600 м
[Cb cap Ac trans]
+15.0 +2.8 44 +14 +14 994.0 978.7
21 23.05 СЗ 8-10
{17}
10 км слаб. ливневой дождь 10/10 600 м
[Cb cap]
+6.2 +5.1 93 +1 +1 995.5 979.8
00 24.05 С 6-10
{12}
10 км слаб. ливневой дождь 10/10 600 м
[Cb cap]
+3.6 +2.9 95 -2 -2 997.0 981.1
03 24.05 С 7-10
{12}
50 км {ливн. осадки} 8/8 600 м
[Cb calv]
+1.9 +0.6 91 -5 -4 999.2 983.1 +1.5
06 24.05 СЗ 4
{10}
50 км {ливн. осадки} 9/9 600 м
[Cb calv]
+5.1 -2.1 60 +1 +2 1000.8 984.9
09 24.05 С 6
{11}
50 км 9/9 600 м
[Sc]
+7.2 -4.9 42 +4 +4 1002.2 986.4
12 24.05 СЗ 7-11
{11}
50 км 9/8 600 м
[Cb cap Ac trans]
+7.6 -6.0 37 +4 +4 1003.8 987.9
15 24.05 СЗ 6
{12}
50 км 8/5 600 м
[Cb calv Ac trans]
+5.9 -6.7 40 +2 +2 1005.2 989.2 +7.9
18 24.05 СЗ 2 10 км ясно +2.3 -6.4 53 -0 -0 1006.9 990.7

 

Местоположение метеостанции Гари (Свердловская область, Россия): широта 59.43 долгота 62.33 высота над уровнем моря 131 м.

В архиве по умолчанию представлена погода в Гарях за последнюю неделю. Архивные данные за месяц целиком и за предыдущие месяцы, начиная с января 2011 года, Вы можете получить, выбрав интересующий диапазон дат из раскрывающегося списка и нажав кнопку "Ввод!".


*Определитесь, кто Вы:
робот инопланетянин человек

Внимание! Время в таблицах - всемирное. Для получения местного времени необходимо прибавить поправку, которая равна 5 ч.

Смотрите также архив погоды в соседних городах и на ближайших метеорологических станциях:

Погода в Серове (Свердловская область, Россия) (103 км)
Погода в Верхотурье (Свердловская область, Россия) (108 км)
Погода в Карпинске (Свердловская область, Россия) (136 км)
Погода в Шаиме (Ханты-Мансийский АО, Россия) (145 км)
Погода в Североуральске (Свердловская область, Россия) (159 км)
Погода в Таборах (Свердловская область, Россия) (160 км)
Погода в Туринске (Свердловская область, Россия) (172 км)
Погода в Ивделе (Свердловская область, Россия) (174 км)
Погода в Кытлыме (Свердловская область, Россия) (176 км)
Погода в Алапаевске (Свердловская область, Россия) (177 км)

Пояснения к столбцам:

Ветер - указаны скорость ветра в м/с - средняя за 10 мин, порывы в срок и между сроками (в фигурных скобках) и направление, откуда дует ветер: С - северный, СВ - северо-восточный, В - восточный, ЮВ - юго-восточный, Ю - южный, ЮЗ - юго-западный, З - западный, СЗ - северо-западный.
Видимость - горизонтальная дальность видимости в метрах или километрах. При видимости от 1 до 10 км при отсутствии осадков обычно наблюдается дымка, при ухудшении видимости до 1 км и менее - туман. В сухую погоду видимость может ухудшаться дымом, пылью или мглою.
Явления - указаны атмосферные явления, наблюдавшиеся в срок или в последний час перед сроком; фигурными скобками обозначены явления, наблюдавшиеся между сроками (за 1-3 часа до срока); квадратными скобками обозначены град или гололедные отложения с указанием их диаметра в мм.
Облачность - указаны через наклонную черту общая и нижняя облачность в баллах и высота нижней границы облаков в метрах; квадратными скобками обозначены формы облаков: Ci - перистые, Cs - перисто-слоистые, Cc - перисто-кучевые, Ac - высококучевые, As - высокослоистые, Sc - слоисто-кучевые, Ns - слоисто-дождевые, Cu - кучевые, Cb - кучево-дождевые. Подробнее классификацию облаков см. в Атласе облаков (PDF).
T - Температура воздуха - температура, измеренная на высоте 2 м над землей.
Td - Температура точки росы - температура, при понижении до которой содержащийся в воздухе водяной пар достигнет насыщения.
f - Относительная влажность воздуха - влажноcть воздуха, измеренная на высоте 2 м над землей.
Te - Эффективная температура - температура, которую ощущает одетый по сезону человек в тени. Характеристика душности погоды. При расчете учитывается влияние влажности воздуха и скорости ветра на теплоощущения человека.
Tes - Эффективная температура на солнце - температура, которую ощущает человек, с поправкой на солнечный нагрев. Характеристика знойности погоды. Зависит от высоты солнца над горизонтом, облачности и скорости ветра. Ночью, в пасмурную погоду, а также при ветре 12 м/с и более поправка равна нулю.
P - Атмосферное давление - приведенное к уровню моря атмосферное давление.
Po - Атмосферное давление - измеренное на уровне метеостанции атмосферное давление.
Tmin - Минимальная температура - минимум температуры воздуха на высоте 2 м над землей.
Tmax - Максимальная температура - максимум температуры воздуха на высоте 2 м над землей.
R - Количество осадков - Количество выпавших осадков за период времени, мм. При наведении курсора мыши на число - период времени, за который выпало указанное количество осадков.
R24 - Количество осадков - Количество выпавших осадков за 24 часа, мм.
S - Снежный покров - Высота снежного покрова, см. При наведении курсора мыши на число - состояние снежного покрова и степень покрытия местности в баллах.